Weather History for K3I2 - February, 2014

Change the Weather History Date:

Tuesday, February 4, 2014

  Actual Average (KHTS) Record (KHTS)
Temperature  
Mean Temperature 32 °F 35 °F  
Max Temperature 37 °F 44 °F 73 °F (1962)
Min Temperature 26 °F 26 °F -9 °F (1996)
Degree Days  
Heating Degree Days 34 30  
Month to date heating degree days 120  
Since 1 July heating degree days 2844  
Cooling Degree Days 0 0  
Month to date cooling degree days 0  
Year to date cooling degree days 0  
Moisture  
Dew Point 28 °F    
Average Humidity 83    
Maximum Humidity 93    
Minimum Humidity 75    
Precipitation  
Precipitation 0.00 in 0.10 in 1.67 in (1998)
Month to date precipitation 0.43  
Year to date precipitation 3.40  
Snow  
Snow 0.00 in - - ()
Month to date snowfall  
Since 1 September snowfall  
Snow Depth -    
Sea Level Pressure  
Sea Level Pressure 30.24 in    
Wind  
Wind Speed 2 mph (NE)    
Max Wind Speed 9 mph    
Max Gust Speed -    
Visibility 7 miles    
Events Snow    
T = Trace of Precipitation, MM = Missing Value Source: NWS Daily Summary

Daily Weather History Graph

Daily Weather History Graph

Search for Another Location

Airport or City:

Trip Planner

Search our weather history database for the weather conditions in past years. The results will help you decide how hot, cold, wet, or windy it might be!

Date:

Astronomy

Feb. 04, 2014 Rise Set
Actual Time 7:31 AM EST 5:53 PM EST
Civil Twilight 7:03 AM EST 6:21 PM EST
Nautical Twilight 6:32 AM EST 6:52 PM EST
Astronomical Twilight 6:00 AM EST 7:24 PM EST
Moon 10:12 AM EST (2/4) 11:42 PM EST (2/4)
Length of Visible Light 11h 17m
Length of Day
10h 21m
Waxing Crescent, 29% of the Moon is Illuminated
Feb 4
Waxing Crescent
Feb 6
First Quarter
Feb 14
Full
Feb 22
Last Quarter
Mar 1
New

Hourly Weather History & Observations

Time (EST) Temp. Windchill Dew Point Humidity Pressure Visibility Wind Dir Wind Speed Gust Speed Precip Events Conditions
12:15 AM 32.0 °F - 28.4 °F 87% 30.35 in 10.0 mi Calm Calm - N/A   Overcast
12:35 AM 32.0 °F - 28.4 °F 87% 30.35 in 7.0 mi Calm Calm - N/A   Mostly Cloudy
12:55 AM 30.2 °F - 26.6 °F 86% 30.35 in 7.0 mi Calm Calm - N/A   Clear
1:15 AM 30.2 °F - 26.6 °F 86% 30.35 in 3.0 mi Calm Calm - N/A   Clear
1:35 AM 28.4 °F - 26.6 °F 93% 30.35 in 5.0 mi Calm Calm - N/A   Clear
1:55 AM 28.4 °F - 26.6 °F 93% 30.34 in 5.0 mi Calm Calm - N/A   Clear
2:15 AM 28.4 °F - 24.8 °F 86% 30.35 in 5.0 mi Calm Calm - N/A   Clear
2:35 AM 28.4 °F - 24.8 °F 86% 30.34 in 5.0 mi Calm Calm - N/A   Clear
2:55 AM 26.6 °F - 23.0 °F 86% 30.33 in 4.0 mi Calm Calm - N/A   Clear
3:15 AM 26.6 °F - 23.0 °F 86% 30.34 in 3.0 mi Calm Calm - N/A   Clear
3:35 AM 26.6 °F - 23.0 °F 86% 30.35 in 2.5 mi Calm Calm - N/A   Scattered Clouds
3:55 AM 26.6 °F - 23.0 °F 86% 30.35 in 5.0 mi Calm Calm - N/A   Mostly Cloudy
4:15 AM 26.6 °F - 23.0 °F 86% 30.35 in 5.0 mi Calm Calm - N/A   Overcast
4:35 AM 28.4 °F - 24.8 °F 86% 30.34 in 7.0 mi Calm Calm - N/A   Overcast
4:55 AM 28.4 °F - 24.8 °F 86% 30.35 in 7.0 mi Calm Calm - N/A   Overcast
5:15 AM 28.4 °F - 24.8 °F 86% 30.35 in 7.0 mi Calm Calm - N/A   Overcast
5:35 AM 28.4 °F - 26.6 °F 93% 30.35 in 7.0 mi Calm Calm - N/A   Overcast
5:55 AM 28.4 °F - 24.8 °F 86% 30.35 in 7.0 mi Calm Calm - N/A   Overcast
6:15 AM 28.4 °F - 24.8 °F 86% 30.35 in 7.0 mi Calm Calm - N/A   Overcast
6:35 AM 28.4 °F - 24.8 °F 86% 30.35 in 7.0 mi Calm Calm - N/A   Overcast
6:55 AM 28.4 °F - 24.8 °F 86% 30.35 in 10.0 mi Calm Calm - N/A   Overcast
7:15 AM 28.4 °F - 24.8 °F 86% 30.35 in 7.0 mi Calm Calm - N/A   Overcast
7:35 AM 28.4 °F - 24.8 °F 86% 30.36 in 7.0 mi Calm Calm - N/A   Overcast
7:55 AM 30.2 °F - 24.8 °F 80% 30.34 in 7.0 mi Calm Calm - N/A   Overcast
8:15 AM 30.2 °F - 24.8 °F 80% 30.34 in 7.0 mi Calm Calm - N/A   Mostly Cloudy
8:35 AM 30.2 °F 26.7 °F 24.8 °F 80% 30.36 in 7.0 mi NE 3.5 mph - N/A   Overcast
8:55 AM 30.2 °F - 26.6 °F 86% 30.37 in 7.0 mi Calm Calm - N/A   Overcast
9:15 AM 32.0 °F 28.7 °F 26.6 °F 80% 30.37 in 7.0 mi NNE 3.5 mph - N/A   Overcast
9:35 AM 32.0 °F - 26.6 °F 80% 30.37 in 7.0 mi Calm Calm - N/A   Overcast
9:55 AM 32.0 °F - 26.6 °F 80% 30.37 in 10.0 mi Calm Calm - N/A   Overcast
10:15 AM 32.0 °F 28.7 °F 26.6 °F 80% 30.37 in 10.0 mi NE 3.5 mph - N/A   Overcast
10:35 AM 32.0 °F 28.7 °F 26.6 °F 80% 30.36 in 10.0 mi NE 3.5 mph - N/A   Overcast
10:55 AM 32.0 °F 26.4 °F 26.6 °F 80% 30.33 in 10.0 mi ENE 5.8 mph - N/A   Overcast
11:15 AM 33.8 °F 29.6 °F 26.6 °F 75% 30.32 in 10.0 mi ENE 4.6 mph - N/A   Overcast
11:35 AM 33.8 °F 29.6 °F 26.6 °F 75% 30.32 in 10.0 mi NE 4.6 mph - N/A   Overcast
11:55 AM 33.8 °F 28.6 °F 26.6 °F 75% 30.31 in 10.0 mi NNE 5.8 mph - N/A   Overcast
12:15 PM 33.8 °F 28.6 °F 26.6 °F 75% 30.29 in 10.0 mi NE 5.8 mph - N/A   Overcast
12:35 PM 33.8 °F 27.0 °F 28.4 °F 81% 30.26 in 10.0 mi ENE 8.1 mph - N/A   Overcast
12:55 PM 33.8 °F 27.7 °F 28.4 °F 81% 30.25 in 10.0 mi ENE 6.9 mph - N/A   Overcast
1:15 PM 35.6 °F 31.7 °F 28.4 °F 75% 30.23 in 10.0 mi NE 4.6 mph - N/A   Overcast
1:35 PM 35.6 °F 31.7 °F 28.4 °F 75% 30.21 in 10.0 mi ENE 4.6 mph - N/A   Overcast
1:55 PM 35.6 °F 31.7 °F 28.4 °F 75% 30.21 in 10.0 mi NE 4.6 mph - N/A   Overcast
2:15 PM 35.6 °F 31.7 °F 28.4 °F 75% 30.20 in 10.0 mi NE 4.6 mph - N/A   Overcast
2:35 PM 35.6 °F 30.7 °F 30.2 °F 81% 30.19 in 10.0 mi NE 5.8 mph - N/A   Overcast
2:55 PM 35.6 °F 32.8 °F 30.2 °F 81% 30.19 in 10.0 mi North 3.5 mph - N/A   Overcast
3:15 PM 35.6 °F 32.8 °F 30.2 °F 81% 30.22 in 10.0 mi North 3.5 mph - N/A   Overcast
3:35 PM 37.4 °F 34.9 °F 30.2 °F 75% 30.22 in 10.0 mi North 3.5 mph - N/A   Overcast
3:55 PM 35.6 °F 30.7 °F 30.2 °F 81% 30.17 in 10.0 mi NE 5.8 mph - N/A   Overcast
4:15 PM 35.6 °F 28.6 °F 30.2 °F 81% 30.16 in 10.0 mi ENE 9.2 mph - N/A   Overcast
4:35 PM 35.6 °F 29.2 °F 30.2 °F 81% 30.16 in 10.0 mi ENE 8.1 mph - N/A   Overcast
4:55 PM 35.6 °F 28.6 °F 30.2 °F 81% 30.16 in 10.0 mi ENE 9.2 mph - N/A   Overcast
5:15 PM 35.6 °F 29.9 °F 30.2 °F 81% 30.12 in 10.0 mi ENE 6.9 mph - N/A   Mostly Cloudy
5:35 PM 35.6 °F 30.7 °F 30.2 °F 81% 30.14 in 10.0 mi NE 5.8 mph - N/A   Mostly Cloudy
5:55 PM 35.6 °F 30.7 °F 30.2 °F 81% 30.14 in 10.0 mi NE 5.8 mph - N/A   Overcast
6:15 PM 35.6 °F 31.7 °F 30.2 °F 81% 30.15 in 10.0 mi NNE 4.6 mph - N/A   Overcast
6:35 PM 35.6 °F 31.7 °F 30.2 °F 81% 30.14 in 10.0 mi NE 4.6 mph - N/A   Overcast
7:15 PM 35.6 °F 31.7 °F 30.2 °F 81% 30.14 in 10.0 mi North 4.6 mph - N/A   Mostly Cloudy
7:35 PM 35.6 °F 28.6 °F 30.2 °F 81% 30.07 in 5.0 mi ENE 9.2 mph - N/A   Mostly Cloudy
7:55 PM 35.6 °F 28.6 °F 30.2 °F 81% 30.07 in 7.0 mi ENE 9.2 mph - N/A   Overcast
8:15 PM 35.6 °F 29.9 °F 30.2 °F 81% 30.05 in 5.0 mi NE 6.9 mph - N/A   Overcast
8:35 PM 35.6 °F 28.6 °F 32.0 °F 87% 30.01 in 4.0 mi NE 9.2 mph - N/A   Mostly Cloudy
8:55 PM 35.6 °F 29.2 °F 32.0 °F 87% 30.02 in 5.0 mi ENE 8.1 mph - N/A   Overcast
9:15 PM 35.6 °F 29.2 °F 32.0 °F 87% 30.00 in 5.0 mi ENE 8.1 mph - N/A   Overcast
9:35 PM 35.6 °F 30.7 °F 32.0 °F 87% 30.02 in 4.0 mi NE 5.8 mph - N/A   Overcast
9:55 PM 35.6 °F 29.9 °F 32.0 °F 87% 30.00 in 4.0 mi NE 6.9 mph - N/A   Overcast
10:15 PM 35.6 °F 31.7 °F 32.0 °F 87% 30.01 in 2.0 mi NE 4.6 mph - N/A Snow Light Snow
10:35 PM 35.6 °F 28.6 °F 32.0 °F 87% 29.97 in 2.0 mi ENE 9.2 mph - N/A Snow Light Snow
10:55 PM 35.6 °F 29.9 °F 32.0 °F 87% 29.96 in 2.5 mi ENE 6.9 mph - N/A Snow Light Snow
11:15 PM 35.6 °F 31.7 °F 32.0 °F 87% 29.95 in 2.0 mi ENE 4.6 mph - N/A Snow Light Snow